{"data":{"norad_id":36101,"epoch":"2026-05-25T03:59:00.881088Z","epoch_age_seconds":60572,"freshness":"FRESH","line1":"1 36101U 09065A   26145.16598242  .00000110  00000+0  00000+0 0  9996","line2":"2 36101   0.4351  80.7652 0005770 339.1779 293.0633  1.00270236 60476","mean_motion":1.00270236,"eccentricity":0.000577,"inclination_deg":0.4351,"raan_deg":80.7652,"arg_perigee_deg":339.1779,"mean_anomaly_deg":293.0633,"bstar":0,"rev_number":6047,"period_min":1436.1190892181,"perigee_km":35762.699906809,"apogee_km":35811.358508613,"semimajor_km":42165.166207711,"source":"CELESTRAK","updated_at":"2026-05-25T13:38:13.868433Z"}}